Date String (YYYY-MM-DD hh:mm:ss) UTC,Instrument flags,Ambient pressure (hPa),Sample flow (lpm),Bypass flow (lpm),Sample temperature (°C),Ambient temperature (°C),ASC tube jacket temperature (°C),LED temperature (°C),Box temperature (°C),Sample RH (%),Span deviation,Mass concentration (μg/m³),Mass concentration (μg/m³),Mass concentration (μg/m³)
DateTimeUTC,F1_M11,P_M11,Q1_M11,Q2_M11,T1_M11,T2_M11,T3_M11,T4_M11,T5_M11,U1_M11,ZSPAN_M11,X0_M11,X2_M11,X1_M11
2022-06-06 08:00:00,,0821.3,5.00,0.00,30.2,29.3,00.0,39.1,32.1,25.2,0000.0,0010.33,0004.25,0002.80
2022-06-06 08:01:00,,0821.3,5.00,0.00,30.2,29.1,00.0,39.1,32.1,25.2,0000.0,0010.42,0004.25,0002.78
2022-06-06 08:02:00,,0821.3,5.01,0.00,30.2,28.1,00.0,39.0,31.8,25.3,0000.0,0010.18,0004.19,0002.75
2022-06-06 08:03:00,,0821.3,5.01,0.00,30.1,27.5,00.0,38.9,31.7,25.3,0000.0,0010.30,0004.22,0002.74
2022-06-06 08:04:00,,0821.4,4.99,0.00,30.0,27.4,00.0,38.9,31.5,25.6,0000.0,0010.38,0004.22,0002.71
2022-06-06 08:05:00,,0821.4,5.00,0.00,29.9,27.4,00.0,38.9,31.5,25.8,0000.0,0011.00,0004.26,0002.73
2022-06-06 08:06:00,,0821.5,5.01,0.00,29.8,27.5,00.0,38.8,31.5,26.0,0000.0,0010.78,0004.29,0002.73
2022-06-06 08:07:00,,0821.4,5.00,0.00,29.8,27.7,00.0,38.8,31.5,25.9,0000.0,0010.72,0004.30,0002.74
2022-06-06 08:08:00,,0821.4,5.00,0.00,29.8,27.8,00.0,38.8,31.5,25.9,0000.0,0010.49,0004.28,0002.75
2022-06-06 08:09:00,,0821.4,4.99,0.00,29.8,27.9,00.0,38.8,31.5,25.9,0000.0,0010.49,0004.27,0002.76
2022-06-06 08:10:00,,0821.4,5.01,0.00,29.7,28.1,00.0,38.8,31.5,25.9,0000.0,0010.55,0004.30,0002.76
2022-06-06 08:11:00,,0821.4,4.99,0.00,29.7,28.2,00.0,38.7,31.5,25.8,0000.0,0010.29,0004.25,0002.73
2022-06-06 08:12:00,,0821.4,5.00,0.00,29.7,28.3,00.0,38.7,31.5,25.8,0000.0,0010.39,0004.24,0002.71
2022-06-06 08:13:00,,0821.4,5.01,0.00,29.7,28.3,00.0,38.7,31.6,25.8,0000.0,0010.90,0004.26,0002.71
2022-06-06 08:14:00,,0821.4,4.99,0.00,29.7,28.4,00.0,38.7,31.6,25.8,0000.0,0010.93,0004.23,0002.70
2022-06-06 08:15:00,,0821.4,4.99,0.00,29.8,28.5,00.0,38.7,31.6,25.7,0000.0,0010.97,0004.26,0002.68
2022-06-06 08:16:00,,0821.3,4.99,0.00,29.8,28.5,00.0,38.7,31.6,25.7,0000.0,0010.39,0004.24,0002.66
2022-06-06 08:17:00,,0821.3,5.01,0.00,29.8,28.6,00.0,38.7,31.6,25.7,0000.0,0010.28,0004.21,0002.67
2022-06-06 08:18:00,,0821.3,4.99,0.00,29.8,28.6,00.0,38.7,31.6,25.7,0000.0,0010.39,0004.27,0002.70
2022-06-06 08:19:00,,0821.4,5.01,0.00,29.8,28.7,00.0,38.7,31.7,25.6,0000.0,0010.49,0004.26,0002.69
2022-06-06 08:20:00,,0821.4,5.00,0.00,29.8,28.7,00.0,38.7,31.7,25.6,0000.0,0010.50,0004.27,0002.68
2022-06-06 08:21:00,,0821.4,4.99,0.00,29.8,28.7,00.0,38.7,31.7,25.7,0000.0,0010.34,0004.20,0002.67
2022-06-06 08:22:00,,0821.4,5.00,0.00,29.8,28.7,00.0,38.7,31.7,25.8,0000.0,0010.40,0004.23,0002.69
2022-06-06 08:23:00,,0821.4,5.00,0.00,29.8,28.8,00.0,38.7,31.7,25.7,0000.0,0010.08,0004.24,0002.70
2022-06-06 08:24:00,,0821.4,4.99,0.00,29.8,28.8,00.0,38.7,31.7,25.5,0000.0,0009.47,0004.22,0002.70
2022-06-06 08:25:00,,0821.4,5.01,0.00,29.9,28.8,00.0,38.7,31.7,25.4,0000.0,0009.28,0004.24,0002.72
2022-06-06 08:26:00,,0821.3,5.00,0.00,29.9,28.8,00.0,38.7,31.8,25.4,0000.0,0009.24,0004.24,0002.76
2022-06-06 08:27:00,,0821.4,5.00,0.00,29.9,28.8,00.0,38.8,31.8,25.4,0000.0,0009.51,0004.28,0002.78
2022-06-06 08:28:00,,0821.4,4.99,0.00,29.9,28.9,00.0,38.8,31.8,25.3,0000.0,0009.86,0004.33,0002.80
2022-06-06 08:29:00,,0821.4,5.00,0.00,29.9,28.9,00.0,38.8,31.7,25.3,0000.0,0011.15,0004.35,0002.82
2022-06-06 08:30:00,,0821.3,5.01,0.00,29.9,28.9,00.0,38.8,31.8,25.2,0000.0,0011.64,0004.39,0002.85
2022-06-06 08:31:00,,0821.3,4.98,0.00,29.9,28.9,00.0,38.8,31.7,25.2,0000.0,0011.89,0004.37,0002.88
2022-06-06 08:32:00,,0821.3,5.02,0.00,29.9,28.9,00.0,38.8,31.8,25.2,0000.0,0012.05,0004.42,0002.91
2022-06-06 08:33:00,,0821.3,5.00,0.00,29.9,28.9,00.0,38.8,31.8,25.1,0000.0,0012.05,0004.43,0002.93
2022-06-06 08:34:00,,0821.2,4.99,0.00,30.0,28.9,00.0,38.8,31.8,25.1,0000.0,0011.97,0004.43,0002.98
2022-06-06 08:35:00,,0821.2,5.02,0.00,30.0,28.9,00.0,38.8,31.8,25.1,0000.0,0012.03,0004.45,0003.00
2022-06-06 08:36:00,,0821.1,5.00,0.00,30.0,29.0,00.0,38.8,31.8,25.1,0000.0,0012.00,0004.42,0003.01
2022-06-06 08:37:00,,0821.2,4.99,0.00,30.0,29.0,00.0,38.8,31.9,25.1,0000.0,0012.02,0004.39,0003.00
2022-06-06 08:38:00,,0821.2,5.01,0.00,30.0,29.0,00.0,38.8,31.9,25.0,0000.0,0011.67,0004.32,0002.99
2022-06-06 08:39:00,,0821.2,5.00,0.00,30.0,29.0,00.0,38.9,31.9,25.0,0000.0,0011.42,0004.28,0003.00
2022-06-06 08:40:00,,0821.2,4.99,0.00,30.0,29.0,00.0,38.9,31.9,25.1,0000.0,0011.19,0004.22,0002.99
2022-06-06 08:41:00,,0821.2,5.01,0.00,30.0,29.0,00.0,38.9,31.9,25.1,0000.0,0011.53,0004.20,0002.98
2022-06-06 08:42:00,,0821.2,5.01,0.00,30.0,29.0,00.0,38.9,31.9,24.8,0000.0,0011.28,0004.24,0002.98
2022-06-06 08:43:00,,0821.1,4.99,0.00,30.0,29.0,00.0,38.9,31.9,24.9,0000.0,0011.25,0004.23,0002.98
2022-06-06 08:44:00,,0821.1,4.99,0.00,30.0,29.0,00.0,38.9,31.9,24.9,0000.0,0011.34,0004.26,0002.99
2022-06-06 08:45:00,,0821.1,5.01,0.00,30.0,29.0,00.0,38.9,31.9,24.9,0000.0,0011.24,0004.22,0002.97
2022-06-06 08:46:00,,0821.1,5.01,0.00,30.0,29.0,00.0,38.9,31.9,24.8,0000.0,0011.17,0004.22,0002.98
2022-06-06 08:47:00,,0821.1,5.00,0.00,30.1,29.0,00.0,38.9,31.9,24.8,0000.0,0011.14,0004.21,0002.97
2022-06-06 08:48:00,,0821.2,4.99,0.00,30.1,29.0,00.0,38.9,31.9,24.8,0000.0,0011.13,0004.22,0002.97
2022-06-06 08:49:00,,0821.2,5.01,0.00,30.1,29.0,00.0,38.9,31.9,24.7,0000.0,0011.25,0004.26,0002.95
2022-06-06 08:50:00,,0821.2,5.00,0.00,30.1,29.0,00.0,38.9,31.9,24.7,0000.0,0011.18,0004.26,0002.95
2022-06-06 08:51:00,,0821.2,5.00,0.00,30.1,29.0,00.0,39.0,32.0,24.8,0000.0,0010.28,0004.26,0002.96
2022-06-06 08:52:00,,0821.2,5.01,0.00,30.1,29.0,00.0,39.0,32.0,24.8,0000.0,0009.33,0004.23,0002.94
2022-06-06 08:53:00,,0821.2,5.00,0.00,30.1,29.0,00.0,39.0,32.0,24.7,0000.0,0009.15,0004.17,0002.92
2022-06-06 08:54:00,,0821.2,4.99,0.00,30.1,29.0,00.0,39.0,32.0,24.6,0000.0,0009.05,0004.16,0002.92
2022-06-06 08:55:00,,0821.2,5.00,0.00,30.1,29.0,00.0,39.0,32.0,24.5,0000.0,0008.87,0004.08,0002.90
2022-06-06 08:56:00,,0821.3,5.02,0.00,30.1,29.0,00.0,39.0,32.0,24.3,0000.0,0008.98,0004.10,0002.89
2022-06-06 08:57:00,,0821.2,4.99,0.00,30.1,29.0,00.0,39.0,32.0,24.4,0000.0,0009.01,0004.10,0002.86
2022-06-06 08:58:00,,0821.2,5.01,0.00,30.1,29.0,00.0,39.0,32.0,24.4,0000.0,0009.06,0004.11,0002.86
2022-06-06 08:59:00,,0821.3,4.99,0.00,30.1,29.0,00.0,39.0,32.0,24.4,0000.0,0009.30,0004.10,0002.84
